^^
Station Historical Data
Daily Summary for April 27, 2017 Units:  English    Metric   Both
« Previous Day
Next Day »
Daily Weekly Monthly Yearly Custom
  High: Low: Average:
Temperature: 78.7 °F 59.2 °F 67.4 °F
Dew Point: 64.8 °F 56.3 °F 60.3 °F
Humidity: 91 % 60 % 79 %
Wind Speed: 7.9 mph 0.0 mph 1 mph
Wind Gust: 13.8 mph - -
Wind:- - SSE
Pressure: 29.90 in 29.77 in -
Precipitation: 0.00 in    
Historical Graphs
 
 
Tabular Data for April 27, 2017
Time Temperature Dew Point Pressure Wind Wind Speed Wind Gust Humidity Rainfall Rate (Hourly) solar Conditions
00:02 61.3 °F 56.4 °F 29.85 in SSW 1.8 mph 3.5 mph 84 % 0.00 in 0.0 W/m2 RA
00:07 61.3 °F 56.4 °F 29.85 in Calm     84 % 0.00 in 0.0 W/m2 RA
00:12 61.2 °F 56.3 °F 29.85 in Calm     84 % 0.00 in 0.0 W/m2 BKN
00:17 61.2 °F 56.7 °F 29.85 in SSW 1.2 mph 2.0 mph 85 % 0.00 in 0.0 W/m2 BKN
00:22 61.2 °F 56.7 °F 29.85 in SSW 0.6 mph 3.5 mph 85 % 0.00 in 0.0 W/m2 BKN
00:27 61.2 °F 56.7 °F 29.85 in SSW 2.2 mph 3.5 mph 85 % 0.00 in 0.0 W/m2 BKN
00:33 61.1 °F 56.6 °F 29.85 in Calm   1.2 mph 85 % 0.00 in 0.0 W/m2 BKN
00:38 61.1 °F 56.6 °F 29.85 in Calm     85 % 0.00 in 0.0 W/m2 BKN
00:43 61.1 °F 56.6 °F 29.85 in Calm     85 % 0.00 in 0.0 W/m2 BKN
00:48 61.1 °F 56.6 °F 29.85 in SSW 1.6 mph 3.5 mph 85 % 0.00 in 0.0 W/m2 BKN
00:53 61.1 °F 56.6 °F 29.85 in SSW 0.1 mph 1.2 mph 85 % 0.00 in 0.0 W/m2 BKN
00:58 61.0 °F 56.5 °F 29.85 in Calm     85 % 0.00 in 0.0 W/m2 BKN
01:03 61.0 °F 56.8 °F 29.85 in SSW 1.2 mph 3.5 mph 86 % 0.00 in 0.0 W/m2 BKN
01:08 60.9 °F 56.7 °F 29.85 in Calm     86 % 0.00 in 0.0 W/m2 BKN
01:13 61.0 °F 56.8 °F 29.85 in Calm     86 % 0.00 in 0.0 W/m2 BKN
01:18 60.9 °F 56.7 °F 29.85 in SSW 0.2 mph 1.2 mph 86 % 0.00 in 0.0 W/m2 BKN
01:23 60.9 °F 56.7 °F 29.85 in Calm     86 % 0.00 in 0.0 W/m2 BKN
01:24 60.9 °F 56.7 °F 29.85 in Calm     86 % 0.00 in 0.0 W/m2 BKN
01:29 60.9 °F 56.7 °F 29.85 in Calm     86 % 0.00 in 0.0 W/m2 BKN
01:34 60.9 °F 56.7 °F 29.85 in Calm     86 % 0.00 in 0.0 W/m2 BKN
01:39 60.9 °F 56.7 °F 29.85 in Calm     86 % 0.00 in 0.0 W/m2 BKN
01:44 60.9 °F 56.7 °F 29.85 in Calm     86 % 0.00 in 0.0 W/m2 BKN
01:49 60.8 °F 56.9 °F 29.85 in Calm     87 % 0.00 in 0.0 W/m2 BKN
01:54 60.8 °F 56.9 °F 29.85 in Calm     87 % 0.00 in 0.0 W/m2 BKN
01:59 60.6 °F 56.7 °F 29.84 in Calm     87 % 0.00 in 0.0 W/m2 BKN
02:05 60.5 °F 56.6 °F 29.85 in Calm     87 % 0.00 in 0.0 W/m2 BKN
02:10 60.5 °F 56.6 °F 29.84 in Calm     87 % 0.00 in 0.0 W/m2 BKN
02:15 60.5 °F 56.6 °F 29.84 in Calm     87 % 0.00 in 0.0 W/m2 BKN
02:20 60.5 °F 56.6 °F 29.84 in Calm     87 % 0.00 in 0.0 W/m2 CLR
02:25 60.5 °F 56.6 °F 29.84 in Calm     87 % 0.00 in 0.0 W/m2 BKN
02:30 60.5 °F 56.6 °F 29.84 in Calm     87 % 0.00 in 0.0 W/m2 BKN
02:35 60.5 °F 56.6 °F 29.84 in Calm     87 % 0.00 in 0.0 W/m2 BKN
02:40 60.4 °F 56.5 °F 29.84 in Calm     87 % 0.00 in 0.0 W/m2 BKN
02:45 60.4 °F 56.8 °F 29.84 in Calm     88 % 0.00 in 0.0 W/m2 BKN
02:50 60.3 °F 56.7 °F 29.84 in Calm     88 % 0.00 in 0.0 W/m2 BKN
02:55 60.3 °F 56.7 °F 29.84 in Calm     88 % 0.00 in 0.0 W/m2 BKN
03:00 60.3 °F 56.7 °F 29.84 in Calm     88 % 0.00 in 0.0 W/m2 BKN
03:05 60.3 °F 56.7 °F 29.84 in Calm     88 % 0.00 in 0.0 W/m2 BKN
03:10 60.3 °F 56.7 °F 29.84 in Calm     88 % 0.00 in 0.0 W/m2 BKN
03:15 60.2 °F 56.6 °F 29.84 in Calm     88 % 0.00 in 0.0 W/m2 BKN
03:20 60.2 °F 56.6 °F 29.84 in Calm     88 % 0.00 in 0.0 W/m2 BKN
03:25 60.2 °F 56.6 °F 29.84 in Calm     88 % 0.00 in 0.0 W/m2 BKN
03:30 60.2 °F 56.6 °F 29.84 in Calm     88 % 0.00 in 0.0 W/m2 BKN
03:35 60.2 °F 56.6 °F 29.84 in Calm     88 % 0.00 in 0.0 W/m2 BKN
03:40 60.1 °F 56.8 °F 29.84 in Calm     89 % 0.00 in 0.0 W/m2 BKN
03:45 60.1 °F 56.8 °F 29.84 in Calm     89 % 0.00 in 0.0 W/m2 BKN
03:50 60.1 °F 56.8 °F 29.84 in Calm     89 % 0.00 in 0.0 W/m2 BKN
03:56 60.0 °F 56.7 °F 29.84 in Calm     89 % 0.00 in 0.0 W/m2 BKN
04:01 60.0 °F 56.7 °F 29.84 in Calm     89 % 0.00 in 0.0 W/m2 BKN
04:06 60.0 °F 56.7 °F 29.84 in Calm     89 % 0.00 in 0.0 W/m2 BKN
04:11 59.9 °F 56.6 °F 29.84 in Calm     89 % 0.00 in 0.0 W/m2 BKN
04:16 59.8 °F 56.6 °F 29.84 in Calm     89 % 0.00 in 0.0 W/m2 BKN
04:21 59.8 °F 56.6 °F 29.84 in Calm     89 % 0.00 in 0.0 W/m2 BKN
04:26 59.8 °F 56.6 °F 29.84 in Calm     89 % 0.00 in 0.0 W/m2 BKN
04:31 59.8 °F 56.6 °F 29.84 in Calm     89 % 0.00 in 0.0 W/m2 BKN
04:36 59.8 °F 56.6 °F 29.84 in Calm     89 % 0.00 in 0.0 W/m2 BKN
04:41 59.7 °F 56.5 °F 29.84 in Calm     89 % 0.00 in 0.0 W/m2 BKN
04:46 59.7 °F 56.5 °F 29.84 in Calm     89 % 0.00 in 0.0 W/m2 BKN
04:51 59.7 °F 56.5 °F 29.84 in Calm     89 % 0.00 in 0.0 W/m2 BKN
04:56 59.7 °F 56.5 °F 29.84 in Calm     89 % 0.00 in 0.0 W/m2 BKN
05:01 59.8 °F 56.6 °F 29.84 in Calm     89 % 0.00 in 0.0 W/m2 BKN
05:06 59.8 °F 56.6 °F 29.84 in Calm     89 % 0.00 in 0.0 W/m2 BKN
05:11 59.7 °F 56.5 °F 29.85 in Calm     89 % 0.00 in 0.0 W/m2 BKN
05:16 59.6 °F 56.4 °F 29.85 in Calm     89 % 0.00 in 0.0 W/m2 BKN
05:21 59.6 °F 56.7 °F 29.85 in Calm     90 % 0.00 in 0.0 W/m2 BKN
05:26 59.6 °F 56.7 °F 29.85 in Calm     90 % 0.00 in 0.0 W/m2 BKN
05:31 59.6 °F 56.7 °F 29.86 in Calm     90 % 0.00 in 0.0 W/m2 BKN
05:36 59.6 °F 56.7 °F 29.86 in SSW 1.4 mph 2.3 mph 90 % 0.00 in 0.0 W/m2 BKN
05:41 59.5 °F 56.6 °F 29.86 in Calm     90 % 0.00 in 0.0 W/m2 BKN
05:46 59.4 °F 56.5 °F 29.86 in Calm   1.2 mph 90 % 0.00 in 0.0 W/m2 BKN
05:51 59.4 °F 56.5 °F 29.86 in Calm     90 % 0.00 in 0.0 W/m2 BKN
05:56 59.3 °F 56.4 °F 29.86 in Calm     90 % 0.00 in 0.0 W/m2 BKN
06:01 59.3 °F 56.4 °F 29.86 in Calm     90 % 0.00 in 0.0 W/m2 BKN
06:06 59.3 °F 56.4 °F 29.87 in Calm     90 % 0.00 in 0.0 W/m2 BKN
06:11 59.3 °F 56.4 °F 29.87 in SSW 0.9 mph 2.3 mph 90 % 0.00 in 7.0 W/m2 BKN
06:16 59.3 °F 56.4 °F 29.87 in Calm     90 % 0.00 in 9.0 W/m2 BKN
06:21 59.2 °F 56.3 °F 29.87 in Calm     90 % 0.00 in 12.0 W/m2 BKN
06:26 59.2 °F 56.3 °F 29.87 in Calm     90 % 0.00 in 12.0 W/m2 BKN
06:31 59.2 °F 56.3 °F 29.87 in Calm     90 % 0.00 in 14.0 W/m2 BKN
06:36 59.2 °F 56.3 °F 29.87 in Calm     90 % 0.00 in 18.0 W/m2 BKN
06:41 59.2 °F 56.6 °F 29.88 in Calm     91 % 0.00 in 18.0 W/m2 BKN
06:42 59.2 °F 56.6 °F 29.88 in Calm     91 % 0.00 in 21.0 W/m2 BKN
06:47 59.2 °F 56.6 °F 29.88 in Calm     91 % 0.00 in 26.0 W/m2 BKN
06:52 59.3 °F 56.7 °F 29.88 in Calm     91 % 0.00 in 28.0 W/m2 BKN
06:57 59.3 °F 56.7 °F 29.89 in Calm     91 % 0.00 in 30.0 W/m2 BKN
07:02 59.4 °F 56.8 °F 29.89 in Calm     91 % 0.00 in 26.0 W/m2 BKN
07:07 59.4 °F 56.8 °F 29.89 in Calm     91 % 0.00 in 32.0 W/m2 BKN
07:12 59.4 °F 56.8 °F 29.88 in Calm     91 % 0.00 in 33.0 W/m2 BKN
07:17 59.4 °F 56.8 °F 29.89 in Calm     91 % 0.00 in 44.0 W/m2 BKN
07:22 59.6 °F 57.0 °F 29.88 in Calm     91 % 0.00 in 54.0 W/m2 BKN
07:27 59.6 °F 57.0 °F 29.88 in Calm   2.3 mph 91 % 0.00 in 60.0 W/m2 BKN
07:32 59.7 °F 57.1 °F 29.88 in Calm     91 % 0.00 in 47.0 W/m2 BKN
07:37 59.6 °F 56.7 °F 29.89 in Calm     90 % 0.00 in 51.0 W/m2 OVC
07:42 59.7 °F 57.1 °F 29.89 in Calm     91 % 0.00 in 72.0 W/m2 BKN
07:47 60.0 °F 57.1 °F 29.89 in Calm     90 % 0.00 in 81.0 W/m2 BKN
07:52 60.1 °F 57.2 °F 29.89 in Calm     90 % 0.00 in 86.0 W/m2 BKN
07:57 60.1 °F 57.2 °F 29.89 in South 1.1 mph 2.3 mph 90 % 0.00 in 88.0 W/m2 BKN
08:02 60.1 °F 57.2 °F 29.89 in Calm     90 % 0.00 in 88.0 W/m2 BKN
08:07 60.2 °F 57.3 °F 29.89 in Calm     90 % 0.00 in 100.0 W/m2 BKN
08:12 60.3 °F 57.0 °F 29.90 in Calm   2.3 mph 89 % 0.00 in 105.0 W/m2 BKN
08:17 60.4 °F 57.1 °F 29.90 in Calm     89 % 0.00 in 97.0 W/m2 BKN
08:22 60.4 °F 57.1 °F 29.90 in Calm     89 % 0.00 in 95.0 W/m2 BKN
08:28 60.5 °F 57.2 °F 29.90 in Calm     89 % 0.00 in 105.0 W/m2 BKN
08:33 60.6 °F 57.3 °F 29.90 in Calm     89 % 0.00 in 125.0 W/m2 BKN
08:38 60.8 °F 57.2 °F 29.90 in South 0.1 mph 3.5 mph 88 % 0.00 in 151.0 W/m2 BKN
08:39 60.8 °F 57.2 °F 29.90 in Calm     88 % 0.00 in 156.0 W/m2 BKN
08:44 60.9 °F 57.0 °F 29.90 in South 1.6 mph 3.5 mph 87 % 0.00 in 181.0 W/m2 BKN
08:49 61.2 °F 57.3 °F 29.90 in Calm   1.2 mph 87 % 0.00 in 211.0 W/m2 SCT
08:55 61.3 °F 57.4 °F 29.90 in Calm     87 % 0.00 in 213.0 W/m2 BKN
09:00 61.7 °F 57.8 °F 29.90 in Calm     87 % 0.00 in 211.0 W/m2 SCT
09:05 61.8 °F 57.6 °F 29.89 in South 1.1 mph 3.5 mph 86 % 0.00 in 188.0 W/m2 BKN
09:10 61.9 °F 57.3 °F 29.90 in South 0.9 mph 2.3 mph 85 % 0.00 in 192.0 W/m2 BKN
09:15 62.0 °F 57.4 °F 29.90 in South 1.3 mph 3.5 mph 85 % 0.00 in 206.0 W/m2 BKN
09:20 62.2 °F 57.6 °F 29.90 in Calm     85 % 0.00 in 230.0 W/m2 BKN
09:25 62.4 °F 57.8 °F 29.90 in SSE 1.5 mph 4.6 mph 85 % 0.00 in 209.0 W/m2 BKN
09:30 62.7 °F 57.8 °F 29.90 in SSE 2.7 mph 4.6 mph 84 % 0.00 in 188.0 W/m2 BKN
09:35 62.6 °F 57.7 °F 29.89 in South 5.7 mph 8.1 mph 84 % 0.00 in 258.0 W/m2 BKN
09:40 62.9 °F 58.0 °F 29.89 in Calm     84 % 0.00 in 246.0 W/m2 BKN
09:45 62.9 °F 57.7 °F 29.89 in South 2.7 mph 3.5 mph 83 % 0.00 in 244.0 W/m2 BKN
09:50 63.2 °F 57.9 °F 29.89 in South 1.0 mph 3.5 mph 83 % 0.00 in 241.0 W/m2 BKN
09:55 63.3 °F 58.0 °F 29.89 in South 2.4 mph 3.5 mph 83 % 0.00 in 229.0 W/m2 BKN
10:00 63.4 °F 58.1 °F 29.89 in South 1.4 mph 2.0 mph 83 % 0.00 in 301.0 W/m2 BKN
10:05 63.5 °F 57.9 °F 29.89 in South 5.8 mph 9.2 mph 82 % 0.00 in 250.0 W/m2 BKN
10:10 63.6 °F 58.0 °F 29.89 in South 4.5 mph 5.8 mph 82 % 0.00 in 308.0 W/m2 BKN
10:15 63.7 °F 58.1 °F 29.89 in Calm     82 % 0.00 in 292.0 W/m2 BKN
10:20 63.8 °F 58.2 °F 29.89 in South 0.5 mph 3.5 mph 82 % 0.00 in 278.0 W/m2 BKN
10:25 64.0 °F 58.4 °F 29.89 in South 2.2 mph 5.0 mph 82 % 0.00 in 264.0 W/m2 BKN
10:30 64.1 °F 58.5 °F 29.88 in South 1.4 mph 3.5 mph 82 % 0.00 in 262.0 W/m2 BKN
10:35 64.2 °F 58.6 °F 29.88 in SSE 0.1 mph 1.2 mph 82 % 0.00 in 308.0 W/m2 BKN
10:40 64.7 °F 59.1 °F 29.89 in SSE 0.7 mph   82 % 0.00 in 345.0 W/m2 SCT
10:45 64.8 °F 58.8 °F 29.89 in SSE 0.2 mph 1.2 mph 81 % 0.00 in 388.0 W/m2 SCT
10:50 65.5 °F 59.2 °F 29.89 in South 1.0 mph 2.0 mph 80 % 0.00 in 418.0 W/m2 SCT
10:55 65.8 °F 59.5 °F 29.88 in Calm   3.5 mph 80 % 0.00 in 385.0 W/m2 SCT
11:00 65.9 °F 59.2 °F 29.89 in SSE 2.0 mph 3.5 mph 79 % 0.00 in 366.0 W/m2 BKN
11:05 65.9 °F 59.2 °F 29.89 in South 0.2 mph 2.0 mph 79 % 0.00 in 345.0 W/m2 BKN
11:10 66.2 °F 59.5 °F 29.89 in South 1.4 mph 5.8 mph 79 % 0.00 in 434.0 W/m2 SCT
11:15 66.8 °F 59.7 °F 29.89 in SE 1.7 mph 2.3 mph 78 % 0.00 in 584.0 W/m2 FEW
11:20 66.6 °F 59.5 °F 29.89 in South 2.4 mph 3.5 mph 78 % 0.00 in 420.0 W/m2 SCT
11:25 67.0 °F 59.5 °F 29.89 in South 0.5 mph 3.5 mph 77 % 0.00 in 541.0 W/m2 SCT
11:30 67.3 °F 59.8 °F 29.89 in South 0.3 mph 2.3 mph 77 % 0.00 in 847.0 W/m2 CLR
11:35 67.4 °F 60.3 °F 29.89 in South 0.2 mph 4.0 mph 78 % 0.00 in 492.0 W/m2 SCT
11:40 68.3 °F 60.4 °F 29.89 in South 5.2 mph 9.2 mph 76 % 0.00 in 1088.0 W/m2 CLR
11:45 68.1 °F 60.2 °F 29.89 in South 1.5 mph 5.8 mph 76 % 0.00 in 554.0 W/m2 CLR
11:50 68.8 °F 60.9 °F 29.88 in South 1.4 mph 3.5 mph 76 % 0.00 in 557.0 W/m2 SCT
11:55 68.4 °F 60.5 °F 29.88 in Calm     76 % 0.00 in 534.0 W/m2 SCT
12:00 68.9 °F 60.6 °F 29.88 in SSW 5.2 mph 6.9 mph 75 % 0.00 in 580.0 W/m2 FEW
12:05 69.1 °F 61.2 °F 29.88 in Calm     76 % 0.00 in 666.0 W/m2 FEW
12:10 69.5 °F 61.2 °F 29.88 in South 2.3 mph 3.5 mph 75 % 0.00 in 536.0 W/m2 FEW
12:15 69.2 °F 60.9 °F 29.87 in Calm     75 % 0.00 in 828.0 W/m2 CLR
12:20 70.4 °F 62.1 °F 29.87 in SSE 0.6 mph   75 % 0.00 in 1035.0 W/m2 CLR
12:25 69.9 °F 60.8 °F 29.87 in SSW 0.9 mph 1.2 mph 73 % 0.00 in 466.0 W/m2 SCT
12:30 70.4 °F 62.1 °F 29.87 in South 0.3 mph 2.3 mph 75 % 0.00 in 1000.0 W/m2 CLR
12:35 71.2 °F 62.5 °F 29.87 in Calm   1.2 mph 74 % 0.00 in 824.0 W/m2 CLR
12:40 71.1 °F 62.0 °F 29.87 in South 0.1 mph 1.2 mph 73 % 0.00 in 559.0 W/m2 FEW
12:45 70.8 °F 61.7 °F 29.86 in SSW 1.8 mph 4.6 mph 73 % 0.00 in 963.0 W/m2 FEW
12:50 71.8 °F 61.9 °F 29.86 in SSW 6.2 mph 9.0 mph 71 % 0.00 in 872.0 W/m2 CLR
12:55 71.6 °F 61.7 °F 29.86 in ESE 2.0 mph 4.6 mph 71 % 0.00 in 772.0 W/m2 CLR
13:00 71.7 °F 63.0 °F 29.86 in Calm   3.5 mph 74 % 0.00 in 406.0 W/m2 BKN
13:05 72.1 °F 62.6 °F 29.85 in ESE 0.3 mph 3.5 mph 72 % 0.00 in 809.0 W/m2 CLR
13:10 72.9 °F 62.9 °F 29.85 in Calm   3.5 mph 71 % 0.00 in 749.0 W/m2 CLR
13:15 73.1 °F 63.1 °F 29.84 in Calm   1.0 mph 71 % 0.00 in 821.0 W/m2 BKN
13:20 72.9 °F 62.5 °F 29.84 in SSE 0.4 mph 3.5 mph 70 % 0.00 in 462.0 W/m2 SCT
13:25 73.0 °F 62.6 °F 29.84 in SSE 0.3 mph 4.6 mph 70 % 0.00 in 376.0 W/m2 FEW
13:30 73.5 °F 63.1 °F 29.84 in South 2.3 mph 6.0 mph 70 % 0.00 in 448.0 W/m2 FEW
13:36 74.1 °F 63.3 °F 29.84 in SSE 0.2 mph   69 % 0.00 in 779.0 W/m2 CLR
13:41 74.2 °F 63.4 °F 29.84 in SSW 0.2 mph 3.0 mph 69 % 0.00 in 933.0 W/m2 CLR
13:46 74.7 °F 63.4 °F 29.83 in South 0.7 mph 3.5 mph 68 % 0.00 in 904.0 W/m2 CLR
13:51 74.9 °F 63.2 °F 29.83 in SW 5.0 mph 8.1 mph 67 % 0.00 in 552.0 W/m2 FEW
13:56 74.8 °F 63.1 °F 29.83 in SE 1.4 mph 2.0 mph 67 % 0.00 in 517.0 W/m2 FEW
14:01 74.6 °F 63.8 °F 29.83 in SE 0.5 mph 5.8 mph 69 % 0.00 in 777.0 W/m2 CLR
14:06 75.3 °F 64.0 °F 29.83 in ESE 0.3 mph 2.3 mph 68 % 0.00 in 768.0 W/m2 CLR
14:11 75.1 °F 63.4 °F 29.82 in ESE 0.8 mph 4.6 mph 67 % 0.00 in 809.0 W/m2 CLR
14:16 75.8 °F 64.1 °F 29.82 in SE 2.7 mph 9.2 mph 67 % 0.00 in 563.0 W/m2 FEW
14:21 75.8 °F 64.1 °F 29.82 in SE 1.8 mph   67 % 0.00 in 738.0 W/m2 CLR
14:26 75.8 °F 63.6 °F 29.82 in SE 4.6 mph 10.4 mph 66 % 0.00 in 689.0 W/m2 CLR
14:31 76.0 °F 63.4 °F 29.82 in South 7.9 mph 13.8 mph 65 % 0.00 in 596.0 W/m2 FEW
14:36 75.9 °F 63.7 °F 29.82 in South 3.8 mph 8.1 mph 66 % 0.00 in 568.0 W/m2 FEW
14:41 75.8 °F 64.1 °F 29.81 in Calm     67 % 0.00 in 508.0 W/m2 SCT
14:46 76.1 °F 63.5 °F 29.81 in Calm   1.2 mph 65 % 0.00 in 584.0 W/m2 FEW
14:51 76.2 °F 64.0 °F 29.81 in SSE 1.2 mph 3.5 mph 66 % 0.00 in 364.0 W/m2 BKN
14:56 76.1 °F 63.9 °F 29.81 in SSE 0.7 mph 3.5 mph 66 % 0.00 in 657.0 W/m2 CLR
15:01 76.3 °F 64.1 °F 29.81 in South 1.6 mph 12.0 mph 66 % 0.00 in 487.0 W/m2 FEW
15:06 76.5 °F 63.9 °F 29.80 in ESE 1.3 mph 3.5 mph 65 % 0.00 in 404.0 W/m2 SCT
15:11 77.0 °F 64.8 °F 29.79 in SE 0.3 mph 2.3 mph 66 % 0.00 in 740.0 W/m2 CLR
15:16 77.4 °F 64.7 °F 29.79 in East 0.9 mph 3.5 mph 65 % 0.00 in 603.0 W/m2 CLR
15:21 77.4 °F 64.3 °F 29.79 in Calm   3.5 mph 64 % 0.00 in 645.0 W/m2 CLR
15:26 77.9 °F 64.3 °F 29.79 in South 6.1 mph 11.5 mph 63 % 0.00 in 715.0 W/m2 CLR
15:31 77.6 °F 64.0 °F 29.79 in Calm   1.2 mph 63 % 0.00 in 585.0 W/m2 FEW
15:36 77.8 °F 64.2 °F 29.79 in SE 1.5 mph 4.6 mph 63 % 0.00 in 506.0 W/m2 FEW
15:41 77.4 °F 63.8 °F 29.79 in South 0.5 mph 2.3 mph 63 % 0.00 in 461.0 W/m2 FEW
15:46 77.7 °F 64.1 °F 29.79 in SSW 4.5 mph 6.9 mph 63 % 0.00 in 385.0 W/m2 SCT
15:51 77.9 °F 64.3 °F 29.79 in ESE 0.8 mph 3.5 mph 63 % 0.00 in 380.0 W/m2 SCT
15:56 78.2 °F 64.6 °F 29.79 in SSE 5.9 mph 11.5 mph 63 % 0.00 in 348.0 W/m2 SCT
16:01 77.8 °F 63.7 °F 29.78 in SSE 3.0 mph 9.2 mph 62 % 0.00 in 410.0 W/m2 SCT
16:06 77.7 °F 63.2 °F 29.78 in South 5.9 mph 13.8 mph 61 % 0.00 in 362.0 W/m2 SCT
16:11 77.7 °F 63.6 °F 29.78 in SSW 1.8 mph 5.8 mph 62 % 0.00 in 322.0 W/m2 SCT
16:16 78.0 °F 63.9 °F 29.78 in South 6.6 mph 9.2 mph 62 % 0.00 in 272.0 W/m2 BKN
16:21 77.9 °F 63.4 °F 29.79 in South 5.1 mph 9.0 mph 61 % 0.00 in 257.0 W/m2 BKN
16:26 77.7 °F 63.2 °F 29.78 in South 5.4 mph 9.2 mph 61 % 0.00 in 265.0 W/m2 BKN
16:31 77.6 °F 63.5 °F 29.79 in South 4.6 mph 5.8 mph 62 % 0.00 in 302.0 W/m2 SCT
16:36 77.6 °F 63.5 °F 29.78 in South 2.9 mph 5.8 mph 62 % 0.00 in 297.0 W/m2 SCT
16:41 77.6 °F 63.5 °F 29.78 in SSE 3.1 mph 8.1 mph 62 % 0.00 in 285.0 W/m2 SCT
16:46 77.5 °F 63.5 °F 29.77 in South 1.4 mph 7.0 mph 62 % 0.00 in 255.0 W/m2 SCT
16:51 77.5 °F 63.9 °F 29.77 in SE 0.3 mph   63 % 0.00 in 241.0 W/m2 BKN
16:56 77.6 °F 64.0 °F 29.77 in South 1.4 mph 5.8 mph 63 % 0.00 in 227.0 W/m2 BKN
16:57 77.6 °F 63.5 °F 29.77 in ESE 1.2 mph 4.6 mph 62 % 0.00 in 227.0 W/m2 BKN
17:02 77.4 °F 63.4 °F 29.78 in SSE 0.8 mph 4.6 mph 62 % 0.00 in 225.0 W/m2 BKN
17:08 77.5 °F 63.9 °F 29.78 in SSE 3.9 mph 11.5 mph 63 % 0.00 in 218.0 W/m2 BKN
17:13 77.5 °F 63.5 °F 29.77 in SE 3.1 mph 8.1 mph 62 % 0.00 in 218.0 W/m2 BKN
17:18 77.4 °F 63.8 °F 29.77 in SSE 1.6 mph 9.2 mph 63 % 0.00 in 257.0 W/m2 SCT
17:23 77.4 °F 63.4 °F 29.78 in ESE 4.7 mph 9.2 mph 62 % 0.00 in 283.0 W/m2 FEW
17:28 77.7 °F 63.6 °F 29.78 in SSE 4.1 mph 6.9 mph 62 % 0.00 in 387.0 W/m2 CLR
17:33 78.2 °F 63.6 °F 29.78 in SSE 4.4 mph 6.9 mph 61 % 0.00 in 506.0 W/m2 CLR
17:38 78.6 °F 63.6 °F 29.78 in SE 3.4 mph 6.9 mph 60 % 0.00 in 406.0 W/m2 CLR
17:43 78.6 °F 64.0 °F 29.78 in South 1.4 mph 9.2 mph 61 % 0.00 in 345.0 W/m2 CLR
17:48 78.7 °F 64.1 °F 29.78 in South 1.8 mph 4.6 mph 61 % 0.00 in 373.0 W/m2 CLR
17:53 78.2 °F 63.6 °F 29.78 in SSE 2.9 mph 6.9 mph 61 % 0.00 in 241.0 W/m2 CLR
17:54 78.1 °F 63.6 °F 29.78 in Calm   1.2 mph 61 % 0.00 in 202.0 W/m2 FEW
17:59 77.9 °F 63.8 °F 29.78 in Calm   2.3 mph 62 % 0.00 in 190.0 W/m2 SCT
18:04 77.8 °F 63.7 °F 29.78 in South 7.2 mph 11.5 mph 62 % 0.00 in 213.0 W/m2 FEW
18:09 77.6 °F 63.1 °F 29.78 in SSE 3.6 mph 11.5 mph 61 % 0.00 in 176.0 W/m2 FEW
18:14 77.6 °F 63.5 °F 29.78 in South 6.1 mph 9.2 mph 62 % 0.00 in 199.0 W/m2 FEW
18:19 77.6 °F 63.5 °F 29.78 in South 3.7 mph 5.8 mph 62 % 0.00 in 183.0 W/m2 FEW
18:24 77.6 °F 63.5 °F 29.79 in South 2.7 mph 5.8 mph 62 % 0.00 in 149.0 W/m2 FEW
18:29 77.5 °F 63.9 °F 29.79 in South 5.1 mph 11.5 mph 63 % 0.00 in 153.0 W/m2 FEW
18:34 77.4 °F 63.8 °F 29.78 in Calm     63 % 0.00 in 118.0 W/m2 SCT
18:39 77.2 °F 64.1 °F 29.79 in SSE 1.4 mph 3.5 mph 64 % 0.00 in 95.0 W/m2 SCT
18:44 76.9 °F 63.8 °F 29.79 in Calm   1.2 mph 64 % 0.00 in 91.0 W/m2 SCT
18:49 76.9 °F 63.8 °F 29.79 in SE 4.5 mph 10.4 mph 64 % 0.00 in 69.0 W/m2 BKN
18:54 76.9 °F 63.8 °F 29.79 in South 4.0 mph 9.2 mph 64 % 0.00 in 63.0 W/m2 BKN
18:59 76.8 °F 63.7 °F 29.79 in South 6.0 mph 10.4 mph 64 % 0.00 in 74.0 W/m2 SCT
19:04 76.8 °F 64.1 °F 29.79 in SSE 0.1 mph 3.5 mph 65 % 0.00 in 63.0 W/m2 FEW
19:09 76.5 °F 64.3 °F 29.79 in SE 0.1 mph 4.6 mph 66 % 0.00 in 26.0 W/m2 BKN
19:14 76.2 °F 64.0 °F 29.78 in SE 1.2 mph 4.0 mph 66 % 0.00 in 25.0 W/m2 BKN
19:19 75.7 °F 64.4 °F 29.78 in SE 0.1 mph 2.0 mph 68 % 0.00 in 21.0 W/m2 BKN
19:24 75.3 °F 64.4 °F 29.78 in South 1.1 mph 4.6 mph 69 % 0.00 in 18.0 W/m2 BKN
19:29 75.1 °F 64.2 °F 29.78 in Calm     69 % 0.00 in 16.0 W/m2 BKN
19:34 74.9 °F 64.0 °F 29.79 in SSE 0.2 mph 2.3 mph 69 % 0.00 in 7.0 W/m2 OVC
19:39 74.8 °F 64.4 °F 29.79 in South 0.7 mph 3.5 mph 70 % 0.00 in 5.0 W/m2 OVC
19:44 74.7 °F 64.3 °F 29.79 in Calm     70 % 0.00 in 0.0 W/m2 OVC
19:49 74.6 °F 64.2 °F 29.79 in Calm     70 % 0.00 in 0.0 W/m2 OVC
19:54 74.5 °F 64.5 °F 29.79 in Calm   1.2 mph 71 % 0.00 in 0.0 W/m2 CLR
19:59 74.2 °F 64.2 °F 29.79 in Calm     71 % 0.00 in 0.0 W/m2 CLR
20:04 74.1 °F 64.5 °F 29.79 in Calm   1.2 mph 72 % 0.00 in 0.0 W/m2 CLR
20:05 74.0 °F 64.4 °F 29.79 in Calm     72 % 0.00 in 0.0 W/m2 CLR
20:10 73.8 °F 64.2 °F 29.79 in Calm   1.0 mph 72 % 0.00 in 0.0 W/m2 CLR
20:15 73.8 °F 64.2 °F 29.79 in Calm     72 % 0.00 in 0.0 W/m2 CLR
20:20 73.6 °F 64.0 °F 29.80 in Calm     72 % 0.00 in 0.0 W/m2 CLR
20:25 73.3 °F 64.1 °F 29.80 in Calm     73 % 0.00 in 0.0 W/m2 CLR
20:30 73.1 °F 63.9 °F 29.80 in Calm     73 % 0.00 in 0.0 W/m2 CLR
20:35 72.8 °F 63.6 °F 29.80 in Calm   1.2 mph 73 % 0.00 in 0.0 W/m2 CLR
20:40 72.3 °F 63.5 °F 29.80 in Calm     74 % 0.00 in 0.0 W/m2 CLR
20:45 71.9 °F 63.5 °F 29.81 in ESE 0.7 mph 3.5 mph 75 % 0.00 in 0.0 W/m2 CLR
20:50 71.5 °F 63.5 °F 29.81 in SE 1.5 mph 4.6 mph 76 % 0.00 in 0.0 W/m2 CLR
20:55 71.3 °F 63.7 °F 29.81 in ESE 1.4 mph 3.5 mph 77 % 0.00 in 0.0 W/m2 CLR
21:00 71.0 °F 63.4 °F 29.81 in Calm     77 % 0.00 in 0.0 W/m2 CLR
21:05 70.8 °F 63.6 °F 29.81 in Calm   3.5 mph 78 % 0.00 in 0.0 W/m2 CLR
21:10 70.6 °F 63.8 °F 29.82 in Calm     79 % 0.00 in 0.0 W/m2 CLR
21:15 70.4 °F 63.6 °F 29.82 in South 1.1 mph 3.5 mph 79 % 0.00 in 0.0 W/m2 CLR
21:20 70.2 °F 63.7 °F 29.82 in South 0.5 mph 2.0 mph 80 % 0.00 in 0.0 W/m2 CLR
21:25 70.0 °F 63.5 °F 29.82 in SSE 2.6 mph 4.0 mph 80 % 0.00 in 0.0 W/m2 CLR
21:30 69.9 °F 63.4 °F 29.82 in SE 3.5 mph 5.8 mph 80 % 0.00 in 0.0 W/m2 CLR
21:35 69.7 °F 63.6 °F 29.82 in ESE 2.0 mph 6.9 mph 81 % 0.00 in 0.0 W/m2 CLR
21:40 69.5 °F 63.4 °F 29.82 in ESE 1.3 mph 3.5 mph 81 % 0.00 in 0.0 W/m2 CLR
21:45 69.3 °F 63.2 °F 29.82 in Calm   1.2 mph 81 % 0.00 in 0.0 W/m2 CLR
21:50 69.2 °F 63.5 °F 29.82 in Calm     82 % 0.00 in 0.0 W/m2 CLR
21:55 69.0 °F 63.3 °F 29.82 in Calm   1.2 mph 82 % 0.00 in 0.0 W/m2 CLR
22:00 68.8 °F 63.1 °F 29.82 in Calm     82 % 0.00 in 0.0 W/m2 CLR
22:05 68.7 °F 63.0 °F 29.83 in ESE 0.2 mph 1.2 mph 82 % 0.00 in 0.0 W/m2 CLR
22:10 68.3 °F 62.9 °F 29.83 in SSE 0.1 mph 2.3 mph 83 % 0.00 in 0.0 W/m2 CLR
22:15 68.1 °F 62.7 °F 29.83 in ESE 1.5 mph 3.5 mph 83 % 0.00 in 0.0 W/m2 CLR
22:20 67.8 °F 62.4 °F 29.83 in ESE 1.0 mph 3.5 mph 83 % 0.00 in 0.0 W/m2 CLR
22:25 67.7 °F 62.7 °F 29.83 in ESE 1.3 mph 2.0 mph 84 % 0.00 in 0.0 W/m2 CLR
22:30 67.6 °F 62.6 °F 29.83 in Calm   1.2 mph 84 % 0.00 in 0.0 W/m2 CLR
22:35 67.4 °F 62.4 °F 29.83 in Calm     84 % 0.00 in 0.0 W/m2 CLR
22:40 67.3 °F 62.3 °F 29.83 in Calm     84 % 0.00 in 0.0 W/m2 CLR
22:45 67.2 °F 62.2 °F 29.83 in Calm     84 % 0.00 in 0.0 W/m2 CLR
22:50 67.0 °F 62.0 °F 29.83 in Calm     84 % 0.00 in 0.0 W/m2 CLR
22:55 66.9 °F 61.9 °F 29.83 in Calm     84 % 0.00 in 0.0 W/m2 CLR
23:00 66.8 °F 62.1 °F 29.83 in Calm     85 % 0.00 in 0.0 W/m2 CLR
23:05 66.6 °F 61.9 °F 29.83 in Calm   3.5 mph 85 % 0.00 in 0.0 W/m2 CLR
23:10 66.5 °F 61.8 °F 29.83 in Calm     85 % 0.00 in 0.0 W/m2 CLR
23:16 66.3 °F 61.7 °F 29.83 in NE 0.7 mph   85 % 0.00 in 0.0 W/m2 CLR
23:21 66.1 °F 61.8 °F 29.83 in Calm     86 % 0.00 in 0.0 W/m2 CLR
23:26 66.0 °F 61.7 °F 29.83 in Calm     86 % 0.00 in 0.0 W/m2 CLR
23:31 65.9 °F 61.6 °F 29.83 in Calm     86 % 0.00 in 0.0 W/m2 CLR
23:36 65.8 °F 61.5 °F 29.83 in Calm   3.5 mph 86 % 0.00 in 0.0 W/m2 CLR
23:41 65.8 °F 61.5 °F 29.83 in Calm     86 % 0.00 in 0.0 W/m2 CLR
23:46 65.7 °F 61.4 °F 29.83 in Calm     86 % 0.00 in 0.0 W/m2 CLR
23:51 65.6 °F 61.3 °F 29.82 in Calm     86 % 0.00 in 0.0 W/m2 CLR
23:56 65.7 °F 61.4 °F 29.83 in Calm     86 % 0.00 in 0.0 W/m2 CLR
Air Products Campus Weather
Compliments of Weather Underground - 3.5 mb